Flag for Germany Weather past 2 weeks in Frankfurt, Hesse, Germany

34 °F


Feels Like: 30 °F
Forecast: 30 / 43 °F
Wind: 5 mph from South

Location: Frankfurt-M-Flughafen Airport

Current Time: Nov 27, 2015 at 3:27:32 PM

Latest Report: Nov 27, 2015 at 2:50 PM

Visibility: 1 mi

Pressure: 30.07 "Hg

Humidity: 100%

Dew point: 34 °F

Location of FrankfurtLocation

Historic Weather in Frankfurt — Graph


Frankfurt temperature yesterday

Maximum temperature yesterday: 45 °F (at 11:50 AM)
Minimum temperature yesterday: 34 °F (at 11:50 PM)
Average temperature yesterday: 41 °F

Past Weeks' High & Low Weather Summary

High61 °F (Nov 18, 12:50 AM)100% (Nov 13, 12:20 AM)30.36 "Hg (Nov 13, 12:20 AM)
Low27 °F (Nov 24, 2:20 AM)51% (Nov 18, 12:50 PM)29.39 "Hg (Nov 21, 2:20 PM)
Average45 °F84%29.97 "Hg
* Reported Nov 12 2:20 PM — Nov 27 2:20 PM, Frankfurt, Weather by CustomWeather, © 2015

Note: Actual official high and low records may vary slightly from our data, if they occured in-between our weather recording intervals... More about our weather records


Frankfurt weather history for previous 24 hours

Time TempWeatherWind HumidityBarometerVisibility
2:20 PM
Fri, Nov 27
34 °FFog.3 mph100%30.07 "Hg1 mi
1:50 PM34 °FFog.3 mph100%30.07 "Hg1 mi
1:20 PM34 °FFog.5 mph100%30.09 "Hg1 mi
12:50 PM34 °FFog.5 mph100%30.09 "Hg1 mi
12:20 PM34 °FFog.3 mph100%30.12 "Hg1 mi
11:50 AM34 °FFog.3 mph93%30.12 "Hg1 mi
11:20 AM32 °FFog.2 mph100%30.12 "Hg1 mi
10:50 AM32 °FFog.3 mph100%30.15 "Hg1 mi
10:20 AM32 °FFog.2 mph100%30.15 "Hg1 mi
9:50 AM32 °FFog.5 mph100%30.15 "Hg1 mi
9:20 AM32 °FFog.5 mph100%30.15 "Hg0 mi
8:50 AM32 °FFog.6 mph100%30.15 "Hg0 mi
7:50 AM32 °FIce fog.7 mph100%30.15 "Hg1 mi
7:20 AM32 °FIce fog.6 mph100%30.15 "Hg1 mi
6:50 AM32 °FIce fog.5 mph93%30.15 "Hg1 mi
6:20 AM32 °FIce fog.7 mph93%30.15 "Hg0 mi
5:50 AM32 °FIce fog.5 mph100%30.15 "Hg0 mi
4:50 AM32 °FFog.2 mph100%30.15 "Hg0 mi
4:20 AM32 °FFog.3 mph100%30.15 "Hg0 mi
3:50 AM32 °FFog.5 mph100%30.18 "Hg0 mi
3:20 AM32 °FFog.1 mph100%30.18 "Hg0 mi
2:50 AM30 °FIce fog.3 mph100%30.18 "Hg1 mi
2:20 AM30 °FIce fog.1 mph93%30.18 "Hg2 mi
1:50 AM30 °FIce fog.2 mph93%30.18 "Hg3 mi
1:20 AM30 °FIce fog.1 mph100%30.18 "Hg3 mi
12:50 AM32 °FLight fog.2 mph93%30.18 "Hg4 mi
12:20 AM32 °FLight fog.2 mph100%30.18 "Hg4 mi
11:50 PM
Thu, Nov 26
34 °FLight fog.1 mph93%30.15 "HgN/A
10:20 PM36 °FPassing clouds.1 mph93%30.18 "HgN/A
9:50 PM36 °FFog.2 mph100%30.18 "HgN/A
9:20 PM37 °FFog.2 mph93%30.18 "HgN/A
8:50 PM39 °FFog.2 mph93%30.15 "HgN/A
8:20 PM39 °FPassing clouds.3 mph93%30.15 "HgN/A
7:50 PM39 °FPassing clouds.2 mph93%30.15 "HgN/A
7:20 PM39 °FPassing clouds.2 mph93%30.15 "HgN/A
6:50 PM41 °FPartly cloudy.1 mph87%30.15 "HgN/A
6:20 PM41 °FPartly cloudy.2 mph87%30.12 "HgN/A
5:50 PM41 °FSprinkles. Passing clouds.6 mph93%30.12 "HgN/A
5:20 PM41 °FScattered showers. Passing clouds.5 mph93%30.09 "HgN/A
4:50 PM41 °FScattered showers. Passing clouds.3 mph87%30.09 "HgN/A
4:20 PM43 °FSprinkles. Partly sunny.9 mph76%30.09 "HgN/A
3:50 PM43 °FScattered showers. Partly sunny.6 mph81%30.07 "HgN/A
3:20 PM45 °FPartly sunny.5 mph71%30.07 "HgN/A
Weather by CustomWeather, © 2015

See weather overviewHow to use our weather pages